Home > Weather > Cape Town > Past weeks

Flag for South Africa Weather for the Past 2 Weeks in Cape Town, South Africa

Now
66 °F

Clear.


Feels Like: 66 °F
Forecast: 60 / 69 °F
Wind: 20 mph from Southeast

Location: Cape Town International Airport

Current Time: May 7, 2016 at 2:38:41 AM

Latest Report: May 7, 2016 at 2:00 AM


Visibility: 10 mi

Pressure: 30.04 "Hg

Humidity: 64%

Dew Point: 54 °F

Location of Cape TownLocation

Historic Weather in Cape Town — Graph

°F

Cape Town Temperature Yesterday

Maximum temperature yesterday: 77 °F (at 2:00 PM)
Minimum temperature yesterday: 63 °F (at 12:00 AM)
Average temperature yesterday: 67 °F

High & Low Weather Summary for the Past Weeks

 TemperatureHumidityPressure
High77 °F (May 6, 2:00 PM)94% (Apr 22, 1:00 AM)30.33 "Hg (Apr 22, 1:00 AM)
Low43 °F (May 1, 8:00 AM)46% (Apr 23, 3:00 PM)29.53 "Hg (Apr 22, 4:00 PM)
Average60 °F75%30.07 "Hg
* Reported Apr 22 1:00 AM — May 7 1:00 AM, Cape Town, Weather by CustomWeather, © 2016

Note: Actual official high and low records may vary slightly from our data, if they occured in-between our weather recording intervals... More about our weather records

Advertising

Cape Town Weather History for the Previous 24 Hours

Scroll right to see more
 ConditionsComfort  
Time TempWeatherWind HumidityBarometerVisibility
1:00 AM
Sat, May 7
66 °FClear.20 mph64%30.04 "Hg10 mi
12:00 AM66 °FClear.16 mph64%30.04 "Hg10 mi
11:00 PM
Fri, May 6
64 °FClear.14 mph64%30.04 "Hg10 mi
10:00 PM63 °FClear.12 mph68%30.04 "Hg10 mi
9:00 PM64 °FPassing clouds.8 mph68%30.04 "HgN/A
8:00 PM66 °FPassing clouds.13 mph64%30.04 "HgN/A
7:00 PM66 °FPassing clouds.17 mph64%30.01 "HgN/A
6:00 PM68 °FPassing clouds.16 mph56%30.01 "HgN/A
5:00 PM70 °FPassing clouds.21 mph57%30.01 "HgN/A
4:00 PM73 °FPassing clouds.21 mph50%29.98 "HgN/A
3:00 PM75 °FPassing clouds.21 mph47%29.98 "HgN/A
2:00 PM77 °FSunny.20 mph47%30.01 "Hg10 mi
1:00 PM75 °FSunny.21 mph50%30.01 "Hg10 mi
12:00 PM73 °FPassing clouds.22 mph50%30.04 "HgN/A
11:00 AM72 °FPassing clouds.20 mph57%30.04 "HgN/A
10:00 AM70 °FPassing clouds.16 mph60%30.04 "HgN/A
9:00 AM66 °FPassing clouds.12 mph64%30.04 "HgN/A
8:00 AM64 °FPassing clouds.20 mph68%30.01 "HgN/A
7:00 AM63 °FSunny.20 mph73%30.01 "Hg10 mi
6:00 AM64 °FClear.20 mph68%30.01 "Hg10 mi
5:00 AM64 °FClear.21 mph73%30.01 "Hg10 mi
4:00 AM63 °FClear.25 mph77%30.01 "Hg10 mi
3:00 AM64 °FClear.29 mph68%30.01 "Hg10 mi
2:00 AM64 °FClear.25 mph73%30.04 "Hg10 mi
Weather by CustomWeather, © 2016

See weather overviewHow to use our weather pages